Tracking 35274 objects as of 10-Sep-2026
HD Live streaming from Space Station
objects crossing your sky now

STARLINK-37206

Track STARLINK-37206 now!
10-day predictions
STARLINK-37206 is classified as:


NORAD ID: 68326
Int'l Code: 2026-059F
Launch date: March 22, 2026
Source: United States (US)
Launch site: AIR FORCE EASTERN TEST RANGE (AFETR)
Your satellite tracking list
Your tracking list is empty




NASA's NSSDC Master Catalog

Two Line Element Set (TLE):
1 68326U 26059F   26251.87945917  .00018379  00000-0  55315-3 0  9993
2 68326  53.1580 215.8875 0003574  69.4613 290.6773 15.34432020 26245
Source of the keplerian elements: AFSPC